Location: Newark
(34.9471°N, 136.1778°E)
Time: 00:59:17
(UTC+00:00)

METEOR M2 - Pass Details

Date: 27 February 2020
Orbit: 818 x 828 km, 98.5° (Epoch: 31 March)

Event Time Altitude Azimuth Distance (km) Brightness Sun altitude
Exits shadow 11:32:40 18° 217° (SW) 1,928 ? -34.2°
Maximum altitude 11:35:38 29° 264° (W) 1,479 ? -34.8°
Drops below altitude 10° 11:40:16 10° 323° (NW) 2,435 ? -35.7°
Sets 11:42:57 0° 334° (NNW) 3,372 ? -36.2°
